Weather History for Burns, OR

Change the Weather History Date:

Wednesday, October 2, 2013

  Actual Average Record
Temperature  
Mean Temperature 39 °F 50 °F  
Max Temperature 54 °F 69 °F 89 °F (2010)
Min Temperature 23 °F 31 °F 20 °F (1950)
Degree Days  
Heating Degree Days 26 15  
Month to date heating degree days 49 30  
Since 1 July heating degree days 341 449  
Cooling Degree Days 0 0  
Month to date cooling degree days 0 0  
Year to date cooling degree days 372 215  
Moisture  
Dew Point 26 °F    
Average Humidity 68    
Maximum Humidity 100    
Minimum Humidity 35    
Precipitation  
Precipitation 0.00 in 0.02 in 1.00 in (1967)
Month to date precipitation 0.00 0.04  
Year to date precipitation 5.93 7.46  
Sea Level Pressure  
Sea Level Pressure 30.07 in    
Wind  
Wind Speed 5 mph (West)    
Max Wind Speed 18 mph    
Max Gust Speed 23 mph    
Visibility 10 miles    
Events      
T = Trace of Precipitation, MM = Missing Value Source: NWS Daily Summary

Daily Weather History Graph

Daily Weather History Graph

Search for Another Location

Airport:

Trip Planner

Search our weather history database for the weather conditions in past years. The results will help you decide how hot, cold, wet, or windy it might be!

Date:

Astronomy

Oct. 02, 2013 Rise Set
Actual Time 6:54 AM PDT 6:34 PM PDT
Civil Twilight 6:26 AM PDT 7:02 PM PDT
Nautical Twilight 5:53 AM PDT 7:36 PM PDT
Astronomical Twilight 5:19 AM PDT 8:09 PM PDT
Moon 4:29 AM PDT (10/2) 5:15 PM PDT (10/2)
Length of Visible Light 12h 36m
Length of Day
11h 39m
Waning Crescent, 6% of the Moon is Illuminated
Oct 2
Waning Crescent
Oct 4
New
Oct 11
First Quarter
Oct 18
Full
Oct 26
Last Quarter

Hourly Weather History & Observations

Time (PDT) Temp. Windchill Dew Point Humidity Pressure Visibility Wind Dir Wind Speed Gust Speed Precip Events Conditions
12:53 AM 28.9 °F 21.1 °F 27.0 °F 92% 30.19 in 10.0 mi WSW 8.1 mph - N/A   Clear
1:53 AM 27.0 °F - 26.1 °F 96% 30.18 in 10.0 mi Calm Calm - N/A   Clear
2:53 AM 25.0 °F - 23.0 °F 92% 30.18 in 10.0 mi Calm Calm - N/A   Clear
3:53 AM 27.0 °F - 25.0 °F 92% 30.16 in 10.0 mi Calm Calm - N/A   Clear
4:53 AM 24.1 °F 17.0 °F 21.9 °F 91% 30.16 in 10.0 mi WNW 5.8 mph - N/A   Clear
5:53 AM 23.0 °F - 21.0 °F 92% 30.16 in 10.0 mi Calm Calm - N/A   Clear
6:53 AM 23.0 °F 18.4 °F 21.0 °F 92% 30.17 in 10.0 mi West 3.5 mph - N/A   Clear
7:53 AM 27.0 °F - 26.1 °F 96% 30.16 in 10.0 mi Calm Calm - N/A   Clear
8:53 AM 34.0 °F - 30.0 °F 85% 30.13 in 10.0 mi Calm Calm - N/A   Clear
9:53 AM 41.0 °F - 28.9 °F 62% 30.11 in 10.0 mi Calm Calm - N/A   Clear
10:53 AM 44.1 °F - 28.0 °F 53% 30.09 in 10.0 mi Calm Calm - N/A   Clear
11:53 AM 46.0 °F - 27.0 °F 47% 30.06 in 10.0 mi Calm Calm - N/A   Clear
12:53 PM 48.9 °F - 27.0 °F 43% 30.01 in 10.0 mi Calm Calm - N/A   Clear
1:53 PM 51.1 °F - 24.1 °F 35% 29.99 in 10.0 mi WSW 4.6 mph - N/A   Clear
2:53 PM 51.1 °F - 25.0 °F 36% 29.96 in 10.0 mi Variable 3.5 mph - N/A   Clear
3:53 PM 52.0 °F - 24.1 °F 34% 29.95 in 10.0 mi Calm Calm - N/A   Clear
4:53 PM 51.1 °F - 28.9 °F 43% 29.96 in 9.0 mi WNW 15.0 mph - N/A   Clear
5:53 PM 48.9 °F - 25.0 °F 39% 29.99 in 9.0 mi WNW 17.3 mph - N/A   Mostly Cloudy
6:53 PM 42.1 °F 36.6 °F 23.0 °F 47% 30.02 in 10.0 mi West 9.2 mph - N/A   Partly Cloudy
7:53 PM 37.9 °F 30.9 °F 27.0 °F 65% 30.03 in 10.0 mi West 10.4 mph - N/A   Clear
8:53 PM 37.9 °F 30.9 °F 27.0 °F 65% 30.03 in 10.0 mi WSW 10.4 mph - N/A   Clear
9:53 PM 37.0 °F 28.9 °F 28.9 °F 73% 30.02 in 10.0 mi WSW 12.7 mph - N/A   Mostly Cloudy
10:53 PM 35.1 °F 26.9 °F 28.9 °F 78% 30.04 in 10.0 mi WSW 11.5 mph - N/A   Clear
11:53 PM 32.0 °F 28.7 °F 27.0 °F 82% 30.06 in 10.0 mi SSW 3.5 mph - N/A   Mostly Cloudy